GW0019 Weather Reports


Display with metric or nautical units.
time (UTC)temp
F
wind
direction
speed
MPH
gust
MPH
rain 1hr
in
rain 24hr
in
rain mn
in
humidity
%
barometer
mb
20240524093912 71 197 6.0 9.0 0.00 0.00 0.00 74 1012.6
20240524093410 71 200 4.0 8.0 0.00 0.00 0.00 74 1013.0
20240524092908 71 156 8.0 10.0 0.00 0.00 0.00 74 1013.0
20240524092406 71 154 3.0 5.0 0.00 0.00 0.00 74 1013.0
20240524091905 71 164 3.0 4.0 0.00 0.00 0.00 74 1013.0
20240524091403 71 134 6.0 9.0 0.00 0.00 0.00 74 1012.8
20240524090903 71 206 0.0 5.0 0.00 0.00 0.00 74 1012.6
20240524090401 71 174 3.0 4.0 0.00 0.00 0.00 74 1012.7
20240524085859 71 160 6.0 7.0 0.00 0.00 0.00 74 1012.6
20240524085357 71 133 6.0 13.0 0.00 0.00 0.00 74 1012.7
20240524084856 71 168 2.0 5.0 0.00 0.00 0.00 74 1012.6
20240524084355 72 144 0.0 3.0 0.00 0.00 0.00 74 1013.1
20240524083855 71 166 3.0 4.0 0.00 0.00 0.00 74 1013.0
20240524083352 71 154 3.0 5.0 0.00 0.00 0.00 74 1013.0
20240524082850 71 128 5.0 7.0 0.00 0.00 0.00 74 1013.3
20240524082348 71 130 3.0 5.0 0.00 0.00 0.00 74 1013.1
20240524081847 71 206 2.0 5.0 0.00 0.00 0.00 74 1013.2
20240524081346 71 151 7.0 9.0 0.00 0.00 0.00 74 1013.2
20240524080845 71 191 3.0 7.0 0.00 0.00 0.00 74 1013.1
20240524080344 71 185 5.0 7.0 0.00 0.00 0.00 74 1013.3
20240524075842 71 178 3.0 7.0 0.00 0.00 0.00 74 1013.6
20240524075341 71 166 1.0 10.0 0.00 0.00 0.00 74 1013.6
20240524074840 71 162 6.0 9.0 0.00 0.00 0.00 74 1013.6
20240524074339 71 137 4.0 4.0 0.00 0.00 0.00 74 1013.6
20240524073838 71 194 3.0 5.0 0.00 0.00 0.00 74 1013.5
20240524073337 71 119 5.0 10.0 0.00 0.00 0.00 74 1013.6
20240524072836 70 186 3.0 4.0 0.00 0.00 0.00 74 1013.4
20240524072334 70 159 4.0 5.0 0.00 0.00 0.00 74 1013.4
20240524071827 70 203 3.0 7.0 0.00 0.00 0.00 74 1013.1
20240524071325 70 166 3.0 4.0 0.00 0.00 0.00 74 1013.3
20240524070825 70 166 1.0 2.0 0.00 0.00 0.00 74 1013.3
20240524070323 71 120 7.0 7.0 0.00 0.00 0.00 74 1013.1
20240524065822 70 130 3.0 3.0 0.00 0.00 0.00 74 1013.4
20240524065322 70 90 2.0 3.0 0.00 0.00 0.00 74 1013.5
20240524064820 71 153 4.0 4.0 0.00 0.00 0.00 74 1013.5
20240524064319 71 159 3.0 7.0 0.00 0.00 0.00 74 1013.5
20240524063816 71 161 3.0 7.0 0.00 0.00 0.00 74 1013.3
20240524063315 71 148 3.0 3.0 0.00 0.00 0.00 74 1013.4
20240524062815 71 158 2.0 7.0 0.00 0.00 0.00 74 1013.8
20240524062312 71 154 3.0 8.0 0.00 0.00 0.00 74 1013.7
20240524061812 70 156 5.0 8.0 0.00 0.00 0.00 74 1013.7
20240524061311 70 150 5.0 10.0 0.00 0.00 0.00 74 1014.1
20240524060810 70 162 2.0 9.0 0.00 0.00 0.00 74 1014.0
20240524060308 70 196 6.0 7.0 0.00 0.00 0.00 74 1014.2
20240524055808 70 152 7.0 9.0 0.00 0.00 0.00 74 1014.2
20240524055307 70 176 5.0 8.0 0.00 0.00 0.00 74 1014.5
20240524054806 70 180 2.0 8.0 0.00 0.00 0.00 74 1014.4
20240524054305 71 154 4.0 7.0 0.00 0.00 0.00 74 1014.2
20240524053805 71 182 3.0 6.0 0.00 0.00 0.00 74 1014.3
20240524053304 71 157 4.0 6.0 0.00 0.00 0.00 74 1014.5
20240524052802 71 139 6.0 7.0 0.00 0.00 0.00 74 1014.4
20240524052301 71 165 2.0 7.0 0.00 0.00 0.00 74 1014.7
20240524051759 71 140 7.0 8.0 0.00 0.00 0.00 74 1014.9
20240524051259 71 186 6.0 6.0 0.00 0.00 0.00 74 1015.1
20240524050757 71 163 2.0 5.0 0.00 0.00 0.00 74 1015.1
20240524050255 71 196 4.0 5.0 0.00 0.00 0.00 74 1015.1
20240524045754 71 135 4.0 6.0 0.00 0.23 0.23 74 1015.2
20240524045253 71 215 1.0 9.0 0.00 0.23 0.23 74 1015.2
20240524044751 71 186 6.0 9.0 0.00 0.23 0.23 74 1015.1
20240524044249 71 142 5.0 8.0 0.00 0.23 0.23 74 1015.0
20240524043748 71 131 5.0 7.0 0.00 0.23 0.23 74 1015.1
20240524043246 71 180 2.0 5.0 0.00 0.23 0.23 74 1015.1
20240524042745 71 203 7.0 9.0 0.00 0.23 0.23 74 1015.1
20240524042245 71 163 3.0 8.0 0.00 0.23 0.23 74 1015.2
20240524041744 71 157 2.0 7.0 0.00 0.23 0.23 74 1015.1
20240524041242 71 186 3.0 6.0 0.00 0.23 0.23 74 1015.1
20240524040740 71 163 3.0 6.0 0.00 0.23 0.23 74 1015.1
20240524040239 71 151 4.0 5.0 0.00 0.23 0.23 74 1015.0
20240524035737 71 180 2.0 7.0 0.00 0.23 0.23 74 1015.2
20240524035237 71 154 3.0 5.0 0.00 0.23 0.23 74 1015.3
20240524034735 71 152 3.0 4.0 0.00 0.23 0.23 74 1015.3
20240524034233 72 157 5.0 7.0 0.00 0.23 0.23 74 1015.4
20240524033732 72 200 6.0 8.0 0.00 0.23 0.23 74 1015.3
20240524033231 72 166 5.0 7.0 0.00 0.23 0.23 74 1015.2
20240524032731 72 155 3.0 10.0 0.00 0.23 0.23 74 1015.2
20240524032230 72 162 2.0 7.0 0.00 0.23 0.23 74 1015.2
20240524031728 72 192 5.0 7.0 0.00 0.23 0.23 74 1015.3
20240524031227 72 167 3.0 7.0 0.00 0.23 0.23 74 1014.9
20240524030725 72 142 5.0 5.0 0.00 0.23 0.23 74 1014.9
20240524030225 73 193 3.0 6.0 0.00 0.23 0.23 74 1014.7
20240524025726 73 183 2.0 6.0 0.00 0.23 0.23 74 1014.5
20240524025225 73 148 3.0 9.0 0.00 0.23 0.23 74 1014.7
20240524024723 73 162 4.0 5.0 0.00 0.23 0.23 74 1014.6
20240524024222 73 126 3.0 6.0 0.00 0.23 0.23 74 1014.3
20240524023720 73 151 3.0 6.0 0.00 0.23 0.23 74 1014.2
20240524023219 73 186 3.0 7.0 0.00 0.23 0.23 74 1014.2
20240524022719 73 133 3.0 8.0 0.00 0.23 0.23 74 1014.1
20240524022218 73 183 3.0 13.0 0.00 0.23 0.23 74 1014.1
20240524021716 73 157 0.0 5.0 0.00 0.23 0.23 74 1014.2
20240524021215 73 135 3.0 7.0 0.00 0.23 0.23 74 1013.8
20240524020715 73 121 3.0 6.0 0.00 0.23 0.23 74 1014.0
20240524020215 74 151 3.0 9.0 0.00 0.23 0.23 74 1013.9
20240524015715 74 161 4.0 5.0 0.00 0.23 0.23 74 1013.8
20240524015213 74 135 2.0 4.0 0.00 0.23 0.23 74 1013.7
20240524014713 74 151 3.0 4.0 0.00 0.23 0.23 74 1013.8
20240524014212 74 158 4.0 5.0 0.00 0.23 0.23 74 1013.8
20240524013711 75 156 4.0 5.0 0.00 0.23 0.23 74 1013.7
20240524013210 75 138 3.0 4.0 0.00 0.23 0.23 74 1013.6
20240524012709 75 135 4.0 5.0 0.00 0.23 0.23 74 1013.6
20240524012208 75 120 1.0 6.0 0.00 0.23 0.23 74 1013.3
20240524011706 75 166 1.0 6.0 0.00 0.23 0.23 74 1013.5
20240524011206 76 135 4.0 6.0 0.00 0.23 0.23 74 1013.3
20240524010706 76 150 5.0 5.0 0.00 0.23 0.23 75 1013.6
20240524010205 77 183 3.0 5.0 0.00 0.23 0.23 75 1013.6
20240524005704 77 184 2.0 5.0 0.00 0.23 0.23 75 1013.7
20240524005202 77 200 3.0 7.0 0.00 0.23 0.23 75 1013.6
20240524004701 78 151 5.0 5.0 0.00 0.23 0.23 75 1013.5
20240524004201 78 169 2.0 4.0 0.00 0.23 0.23 75 1013.5
20240524003659 78 191 2.0 7.0 0.00 0.23 0.23 75 1013.5
20240524003157 79 161 2.0 7.0 0.00 0.23 0.23 75 1013.6
20240524002655 79 174 3.0 5.0 0.00 0.23 0.23 75 1013.5
20240524002154 79 180 2.0 6.0 0.00 0.23 0.23 75 1013.5
20240524001652 79 154 4.0 8.0 0.00 0.23 0.23 75 1013.6
20240524001150 80 161 3.0 6.0 0.00 0.23 0.23 75 1013.5
20240524000648 80 156 6.0 9.0 0.00 0.23 0.23 75 1013.5
20240524000147 80 158 2.0 5.0 0.00 0.23 0.23 75 1013.3
20240523235645 80 196 5.0 7.0 0.00 0.23 0.23 75 1013.5
20240523235143 81 187 3.0 5.0 0.00 0.23 0.23 75 1013.8
20240523234640 81 205 4.0 7.0 0.00 0.23 0.23 75 1013.7
20240523234139 81 162 3.0 8.0 0.00 0.23 0.23 75 1013.7
20240523233639 81 160 5.0 9.0 0.00 0.23 0.23 75 1013.7
20240523233138 81 133 5.0 7.0 0.00 0.23 0.23 75 1013.7
20240523232636 81 191 3.0 7.0 0.00 0.23 0.23 75 1013.7
20240523232135 81 199 6.0 9.0 0.00 0.23 0.23 75 1013.8
20240523231635 81 194 6.0 8.0 0.00 0.23 0.23 75 1013.8
20240523231134 81 156 4.0 9.0 0.00 0.23 0.23 75 1013.8
20240523230632 81 154 5.0 9.0 0.00 0.23 0.23 75 1013.9
20240523230129 82 196 3.0 10.0 0.00 0.23 0.23 75 1013.9
20240523225628 82 218 9.0 9.0 0.00 0.23 0.23 75 1014.2
20240523225127 82 227 5.0 7.0 0.00 0.23 0.23 75 1014.0
20240523224627 82 194 6.0 8.0 0.00 0.23 0.23 75 1014.0
20240523224128 84 270 3.0 5.0 0.00 0.23 0.23 75 1014.0
20240523223627 82 187 2.0 5.0 0.00 0.23 0.23 75 1014.0
20240523223126 83 160 0.0 4.0 0.00 0.23 0.23 75 1014.1
20240523222624 82 255 6.0 7.0 0.00 0.23 0.23 75 1014.0
20240523222123 82 217 6.0 7.0 0.00 0.23 0.23 75 1014.3
20240523221623 83 213 3.0 4.0 0.00 0.23 0.23 75 1014.2
20240523221122 82 153 5.0 5.0 0.00 0.23 0.23 75 1014.4
20240523220621 82 195 6.0 10.0 0.00 0.23 0.23 75 1014.5
20240523220121 82 199 0.0 10.0 0.00 0.23 0.23 75 1014.3
20240523215619 82 232 3.0 10.0 0.00 0.23 0.23 75 1014.3
20240523215117 82 255 1.0 6.0 0.00 0.23 0.23 75 1014.6
20240523214617 82 162 4.0 7.0 0.00 0.23 0.23 75 1014.5
20240523214116 81 216 5.0 10.0 0.00 0.23 0.23 75 1014.7
20240523213615 82 209 3.0 8.0 0.00 0.23 0.23 75 1014.7
20240523213114 81 212 2.0 8.0 0.00 0.23 0.23 75 1014.9
20240523212612 80 203 5.0 7.0 0.00 0.23 0.23 75 1014.8
20240523212111 82 210 3.0 11.0 0.00 0.23 0.23 75 1014.8
20240523211610 81 203 5.0 8.0 0.00 0.23 0.23 75 1014.9
20240523211110 80 221 6.0 12.0 0.00 0.23 0.23 75 1014.7
20240523210609 82 222 6.0 9.0 0.00 0.23 0.23 75 1014.8
20240523210107 80 258 0.0 9.0 0.00 0.23 0.23 75 1015.1
20240523205606 81 199 7.0 7.0 0.00 0.23 0.23 75 1014.9
20240523205105 81 168 7.0 8.0 0.00 0.23 0.23 75 1015.0
20240523204604 82 225 2.0 9.0 0.00 0.23 0.23 75 1014.8
20240523204104 80 180 4.0 11.0 0.00 0.23 0.23 75 1015.0
20240523203602 80 179 5.0 11.0 0.00 0.23 0.23 75 1015.0
20240523203102 79 153 4.0 11.0 0.00 0.23 0.23 75 1015.2
20240523202601 80 252 5.0 10.0 0.00 0.23 0.23 75 1015.1
20240523202100 80 161 4.0 10.0 0.00 0.23 0.23 75 1015.2
20240523201558 80 163 4.0 13.0 0.00 0.23 0.23 75 1015.4
20240523201057 80 220 6.0 14.0 0.00 0.23 0.23 75 1015.5
20240523200556 81 164 5.0 8.0 0.00 0.23 0.23 75 1015.4
20240523200055 80 192 3.0 11.0 0.00 0.23 0.23 75 1015.4
20240523195553 81 213 2.0 10.0 0.00 0.23 0.23 75 1015.5
20240523195052 81 216 6.0 6.0 0.00 0.23 0.23 75 1015.4
20240523194553 80 204 2.0 9.0 0.00 0.23 0.23 75 1015.6
20240523194051 80 245 5.0 11.0 0.00 0.23 0.23 75 1015.2
20240523193549 80 237 4.0 10.0 0.00 0.23 0.23 75 1015.6
20240523193047 80 157 2.0 6.0 0.00 0.23 0.23 75 1015.5
20240523192546 78 233 8.0 12.0 0.00 0.23 0.23 75 1015.6
20240523192045 78 201 9.0 11.0 0.00 0.23 0.23 75 1015.6
20240523191543 78 181 6.0 11.0 0.00 0.23 0.23 75 1015.6
20240523191043 78 161 5.0 8.0 0.00 0.23 0.23 75 1015.6
20240523190542 80 202 4.0 7.0 0.00 0.23 0.23 75 1015.8
20240523190042 79 196 9.0 12.0 0.00 0.23 0.23 75 1015.8
20240523185541 78 98 6.0 10.0 0.00 0.23 0.23 75 1016.0
20240523185040 77 198 7.0 12.0 0.00 0.23 0.23 75 1016.0
20240523184538 78 166 5.0 10.0 0.00 0.23 0.23 75 1016.0
20240523184039 78 194 3.0 8.0 0.00 0.23 0.23 75 1016.3
20240523183537 78 182 4.0 11.0 0.00 0.23 0.23 75 1016.1
20240523183035 78 189 4.0 8.0 0.00 0.23 0.23 75 1016.1
20240523182534 79 215 4.0 9.0 0.00 0.23 0.23 75 1016.0
20240523182034 77 258 2.0 10.0 0.00 0.23 0.23 75 1016.1
20240523181532 77 197 8.0 11.0 0.00 0.23 0.23 75 1016.5
20240523181031 77 207 5.0 9.0 0.00 0.23 0.23 75 1016.1
20240523180531 76 260 2.0 7.0 0.00 0.23 0.23 75 1016.3
20240523180031 78 266 5.0 6.0 0.00 0.23 0.23 75 1016.3
20240523175530 76 197 6.0 13.0 0.00 0.23 0.23 75 1016.3
20240523175029 77 196 5.0 7.0 0.00 0.23 0.23 75 1016.4
20240523174527 77 153 6.0 9.0 0.00 0.23 0.23 75 1016.2
20240523174026 76 169 5.0 8.0 0.00 0.23 0.23 75 1016.5
20240523173524 77 219 7.0 10.0 0.00 0.23 0.23 75 1016.3
20240523173022 76 180 2.0 9.0 0.00 0.23 0.23 75 1016.4
20240523172520 76 155 4.0 11.0 0.00 0.23 0.23 74 1016.5
20240523172020 76 180 2.0 10.0 0.00 0.23 0.23 74 1016.4
20240523171519 76 206 1.0 8.0 0.00 0.23 0.23 74 1016.4
20240523171017 75 200 5.0 10.0 0.00 0.23 0.23 74 1016.2
20240523170516 75 186 3.0 10.0 0.00 0.23 0.23 74 1016.3
20240523170016 74 186 1.0 9.0 0.00 0.23 0.23 74 1016.3
20240523165515 73 207 9.0 10.0 0.00 0.23 0.23 74 1016.4
20240523165014 73 182 3.0 8.0 0.00 0.23 0.23 74 1016.5
20240523164513 73 204 11.0 11.0 0.00 0.23 0.23 74 1016.6
20240523164012 75 228 2.0 6.0 0.00 0.23 0.23 74 1016.6
20240523163511 74 165 1.0 12.0 0.00 0.23 0.23 74 1016.5
20240523163010 74 230 3.0 9.0 0.00 0.23 0.23 74 1016.4
20240523162509 74 209 5.0 10.0 0.00 0.23 0.23 74 1016.4
20240523162007 74 199 3.0 10.0 0.00 0.23 0.23 74 1016.5
20240523161506 73 207 4.0 9.0 0.00 0.23 0.23 74 1016.7
20240523161003 73 238 4.0 6.0 0.00 0.23 0.23 74 1016.4
20240523160501 73 239 4.0 8.0 0.00 0.23 0.23 74 1016.6
20240523155959 73 213 5.0 5.0 0.00 0.23 0.23 74 1016.4
20240523155459 73 194 3.0 9.0 0.00 0.23 0.23 74 1016.2
20240523154957 74 274 3.0 9.0 0.00 0.23 0.23 74 1016.5
20240523154456 73 225 3.0 9.0 0.00 0.23 0.23 74 1016.4
20240523153956 73 208 9.0 11.0 0.00 0.23 0.23 74 1016.1
20240523153455 73 207 4.0 8.0 0.00 0.23 0.23 74 1016.3
20240523152955 72 201 3.0 4.0 0.00 0.23 0.23 74 1015.8
20240523152455 71 183 2.0 8.0 0.00 0.23 0.23 74 1016.1
20240523151954 72 160 0.0 4.0 0.00 0.23 0.23 74 1015.8
20240523151452 70 253 9.0 12.0 0.00 0.23 0.23 74 1016.1
20240523150950 69 241 4.0 8.0 0.00 0.23 0.23 74 1015.8
20240523150449 69 195 6.0 6.0 0.00 0.23 0.23 74 1016.0
20240523145948 68 221 2.0 3.0 0.00 0.23 0.23 73 1016.2
20240523145448 68 194 3.0 4.0 0.00 0.23 0.23 73 1016.1
20240523144947 67 196 3.0 4.0 0.00 0.23 0.23 73 1015.7
20240523144446 67 198 3.0 4.0 0.00 0.23 0.23 73 1016.0
20240523143945 68 201 2.0 7.0 0.00 0.23 0.23 73 1016.1
20240523143445 67 195 3.0 7.0 0.02 0.23 0.23 73 1016.3
20240523142943 67 184 4.0 5.0 0.02 0.23 0.23 73 1016.0
20240523142442 67 188 3.0 5.0 0.00 0.23 0.23 73 1016.2
20240523141941 67 197 4.0 4.0 0.02 0.23 0.23 73 1016.2
20240523141440 67 151 1.0 4.0 0.02 0.23 0.23 73 1016.3
20240523140939 67 146 3.0 4.0 0.02 0.22 0.22 73 1016.2
20240523140438 66 188 3.0 5.0 0.04 0.22 0.22 73 1016.2
20240523135938 66 203 1.0 5.0 0.02 0.22 0.22 73 1016.2
20240523135437 66 207 4.0 5.0 0.00 0.22 0.22 73 1016.2
20240523134936 66 185 3.0 7.0 0.14 0.22 0.22 73 1016.2
20240523134436 66 171 5.0 7.0 0.42 0.22 0.22 73 1016.3
20240523133934 66 184 4.0 5.0 0.44 0.19 0.19 73 1016.2
20240523133432 66 192 2.0 5.0 0.18 0.14 0.14 73 1016.4
20240523132932 66 192 0.0 5.0 0.11 0.12 0.12 73 1016.1
20240523132430 66 176 2.0 5.0 0.16 0.11 0.11 73 1016.4
20240523131929 66 135 3.0 4.0 0.42 0.10 0.10 73 1016.4
20240523131428 66 148 4.0 6.0 0.44 0.08 0.08 73 1016.1
20240523130928 66 129 5.0 7.0 0.18 0.03 0.03 73 1016.2
20240523130426 65 160 6.0 6.0 0.04 0.00 0.00 73 1016.2
20240523125924 65 154 3.0 7.0 0.00 0.00 0.00 73 1016.1
20240523125422 65 135 4.0 4.0 0.00 0.00 0.00 73 1016.2
20240523124920 65 153 3.0 4.0 0.00 0.00 0.00 73 1016.1
20240523124420 65 180 2.0 4.0 0.00 0.00 0.00 73 1016.1
20240523123920 65 140 0.0 2.0 0.00 0.00 0.00 73 1016.1
20240523123419 65 173 3.0 5.0 0.00 0.00 0.00 73 1016.0
20240523122917 65 150 3.0 4.0 0.00 0.00 0.00 73 1015.5
20240523122415 65 198 1.0 2.0 0.00 0.00 0.00 73 1015.4
20240523121914 65 144 2.0 3.0 0.00 0.00 0.00 73 1015.4
20240523121412 65 156 2.0 3.0 0.00 0.00 0.00 73 1015.4
20240523120912 65 106 0.0 3.0 0.00 0.00 0.00 73 1015.2
20240523120409 65 180 4.0 5.0 0.00 0.00 0.00 73 1015.1
20240523115908 65 159 3.0 5.0 0.00 0.00 0.00 73 1015.2
20240523115408 65 162 3.0 3.0 0.00 0.00 0.00 73 1015.1
20240523114907 65 159 2.0 4.0 0.00 0.00 0.00 73 1015.2
20240523114406 65 131 2.0 3.0 0.00 0.00 0.00 73 1015.5
20240523113905 65 145 3.0 4.0 0.00 0.00 0.00 73 1015.7
20240523113405 65 165 2.0 5.0 0.00 0.00 0.00 73 1015.5
20240523112904 65 147 2.0 4.0 0.00 0.00 0.00 73 1015.2
20240523112403 65 66 1.0 3.0 0.00 0.00 0.00 73 1015.4
20240523111902 65 270 0.0 2.0 0.00 0.00 0.00 73 1015.3
20240523111402 65 130 3.0 4.0 0.00 0.00 0.00 73 1015.2
20240523110900 65 87 3.0 5.0 0.00 0.00 0.00 73 1015.4
20240523110359 65 90 0.0 4.0 0.00 0.00 0.00 73 1015.4
20240523105858 65 135 3.0 4.0 0.00 0.00 0.00 73 1015.4
20240523105355 65 66 0.0 2.0 0.00 0.00 0.00 73 1015.5
20240523104855 65 144 2.0 2.0 0.00 0.00 0.00 73 1015.6
20240523104354 65 154 1.0 3.0 0.00 0.00 0.00 73 1015.6
20240523103852 65 158 2.0 4.0 0.00 0.00 0.00 73 1015.6
20240523103350 65 166 0.0 4.0 0.00 0.00 0.00 73 1015.5
20240523102848 65 120 1.0 3.0 0.00 0.00 0.00 73 1015.4
20240523102347 65 133 3.0 5.0 0.00 0.00 0.00 73 1015.5
20240523101846 65 192 1.0 3.0 0.00 0.00 0.00 73 1015.5
20240523101332 65 129 2.0 4.0 0.00 0.00 0.00 73 1015.4
20240523100831 64 147 2.0 5.0 0.00 0.00 0.00 73 1015.4
20240523100329 65 130 3.0 4.0 0.00 0.00 0.00 73 1015.3
20240523095830 65 165 1.0 4.0 0.00 0.00 0.00 73 1015.4
20240523095329 65 148 2.0 4.0 0.00 0.00 0.00 73 1015.6
20240523094829 64 164 4.0 5.0 0.00 0.00 0.00 73 1015.7
20240523094327 64 130 3.0 5.0 0.00 0.00 0.00 73 1015.7